Home   Weather   Thessaloniki   Past weeks
Flag for Greece

Past Weather in Thessaloniki, Greece — Yesterday and Last 2 Weeks

Now
50 °F

Sunny.


Feels Like: 50 °F
Forecast: 73 / 46 °F
Wind: No wind

Location: Thessaloniki Airport

Current Time: Apr 10, 2020 at 9:33:09 am

Latest Report: Apr 10, 2020 at 8:50 am


Visibility: 10 mi

Pressure: 30.07 "Hg

Humidity: 67%

Dew Point: 39 °F

Location of ThessalonikiLocation

Past Weather in Thessaloniki — Graph

°F

Thessaloniki Temperature Yesterday

Maximum temperature yesterday: 70 °F (at 5:20 pm)
Minimum temperature yesterday: 39 °F (at 5:20 am)
Average temperature yesterday: 53 °F

High & Low Weather Summary for the Past Weeks

 TemperatureHumidityPressure
High70 °F (Apr 9, 5:20 pm)100% (Mar 28, 2:20 am)30.36 "Hg (Mar 28, 2:20 am)
Low37 °F (Apr 3, 3:50 am)24% (Apr 7, 2:50 pm)29.77 "Hg (Apr 1, 8:20 pm)
Average50 °F79%30.01 "Hg
* Reported Mar 26 7:20 am — Apr 10 8:20 am, Thessaloniki. Weather by CustomWeather, © 2020

Note: Actual official high and low records may vary slightly from our data, if they occured in-between our weather recording intervals... More about our weather records

Thessaloniki Weather History for the Previous 24 Hours

Scroll right to see more
 ConditionsComfort  
Time TempWeatherWind HumidityBarometerVisibility
8:20 am
Fri, Apr 10
46 °FSunny.3 mph71%30.07 "Hg10 mi
7:50 am45 °FSunny.3 mph76%30.04 "Hg10 mi
7:20 am41 °FSunny.6 mph81%30.04 "Hg10 mi
6:50 am41 °FClear.5 mph87%30.07 "Hg10 mi
6:20 am41 °FClear.3 mph87%30.04 "Hg10 mi
5:50 am41 °FClear.2 mph87%30.04 "Hg10 mi
5:20 am43 °FClear.2 mph81%30.04 "Hg10 mi
4:20 am43 °FClear.5 mph81%30.07 "Hg10 mi
3:50 am46 °FClear.5 mph71%30.07 "Hg10 mi
3:20 am43 °FClear.6 mph81%30.07 "Hg10 mi
2:50 am45 °FClear.6 mph76%30.07 "Hg10 mi
2:20 am46 °FClear.7 mph76%30.07 "Hg10 mi
1:50 am48 °FClear.6 mph71%30.07 "Hg10 mi
1:20 am48 °FClear.7 mph71%30.07 "Hg10 mi
12:50 am45 °FClear.6 mph81%30.07 "Hg10 mi
12:20 am46 °FClear.2 mph76%30.07 "Hg10 mi
11:50 pm
Thu, Apr 9
48 °FClear.7 mph66%30.07 "Hg10 mi
11:20 pm48 °FClear.7 mph66%30.07 "Hg10 mi
10:20 pm50 °FClear.8 mph62%30.07 "Hg10 mi
9:50 pm52 °FClear.7 mph58%30.07 "Hg10 mi
9:20 pm54 °FClear.6 mph51%30.07 "Hg10 mi
8:50 pm59 °FClear.7 mph39%30.04 "Hg10 mi
8:20 pm59 °FClear.5 mph42%30.04 "Hg10 mi
7:50 pm63 °FSunny.5 mph30%30.04 "Hg10 mi
7:20 pm64 °FSunny.8 mph30%30.04 "Hg10 mi
6:50 pm66 °FSunny.9 mph30%30.04 "Hg10 mi
6:20 pm68 °FSunny.12 mph24%30.04 "Hg10 mi
5:50 pm70 °FSunny.9 mph25%30.04 "Hg10 mi
5:20 pm70 °FSunny.9 mph31%30.04 "Hg10 mi
4:20 pm68 °FSunny.9 mph38%30.07 "Hg10 mi
3:50 pm68 °FSunny.9 mph38%30.07 "Hg10 mi
2:50 pm66 °FSunny.8 mph43%30.09 "Hg10 mi
2:20 pm64 °FSunny.8 mph46%30.12 "Hg10 mi
1:50 pm64 °FSunny.6 mph49%30.12 "Hg10 mi
1:20 pm63 °FSunny.7 mph52%30.12 "Hg10 mi
12:50 pm61 °FSunny.6 mph55%30.12 "Hg10 mi
12:20 pm57 °FSunny.6 mph63%30.15 "Hg10 mi
11:50 am55 °FSunny.6 mph72%30.15 "Hg10 mi
11:20 am55 °FSunny.7 mph67%30.15 "Hg10 mi
10:50 am54 °FSunny.7 mph72%30.15 "Hg10 mi
10:20 am52 °FSunny.7 mph77%30.15 "Hg10 mi
9:50 am52 °FSunny.3 mph67%30.15 "Hg10 mi
9:20 am52 °FSunny.2 mph67%30.15 "Hg10 mi
Weather by CustomWeather, © 2020

See weather overview

Advertising